Wind From: 13-12-2017 10:08 Until: 14-12-2017 06:00 warning for: Wind Level: Yellow info button

Although rather usual in this region, locally or potentially dangerous phenomena are expected. (such as local winds, summer thunderstorms, rising streams or high waves) Be aware and pay attention to the latest weather updates, especially if you carry out activities exposed to weather or close to a stream or shoreline. 


Meteo18 Weather Cam more information Meteo18 Weather Cam


Thunder radar more information blitzortung!


Rain radar more information rain snow radar


Visit our other weather sites:

Template documentation
and downloads

And another site



Weather Underground History page Text

Daily Summary for December 2, 2017 Units:  English    Metric   Both
« Previous Day
Next Day »
Daily Weekly Monthly Yearly Custom
  High: Low: Average:
Temperature: 35.6 °F 30.4 °F 32.5 °F
Dew Point: 30.9 °F 28.4 °F 29.8 °F
Humidity: 93 % 83 % 90 %
Wind Speed: 22 mph 0 mph 5.9 mph
Wind Gust: 23 mph - -
Wind:- - SSW
Pressure: 30.4 in 30.2 in -
Precipitation: 0.01 in    
Historical Graphs
 
 
Tabular Data for December 2, 2017
Time Temperature Dew Point Pressure Wind Wind Speed Wind Gust Humidity Rainfall Rate (Hourly)
00:12 32.7 °F 30.7 °F 30.2 in NNW 5 mph 11 mph 92 % 0 in
00:22 32.7 °F 30.9 °F 30.2 in NNW 7 mph 11 mph 93 % 0 in
00:32 32.7 °F 30.7 °F 30.2 in North 6 mph 13 mph 92 % 0 in
00:42 32.4 °F 30.6 °F 30.2 in North 5 mph 10 mph 93 % 0 in
00:47 32.4 °F 30.6 °F 30.2 in North 6 mph 11 mph 93 % 0 in
00:52 32.4 °F 30.6 °F 30.2 in NNW 6 mph 11 mph 93 % 0 in
01:02 32.5 °F 30.7 °F 30.2 in NNE 4 mph 13 mph 93 % 0 in
01:07 32.5 °F 30.7 °F 30.2 in North 9 mph 13 mph 93 % 0 in
01:12 32.4 °F 30.4 °F 30.2 in NNE 5 mph 13 mph 92 % 0 in
01:22 32.4 °F 30.4 °F 30.2 in NNE 8 mph 15 mph 92 % 0 in
01:27 32.4 °F 30.4 °F 30.2 in North 5 mph 15 mph 92 % 0 in
01:32 32.4 °F 30.4 °F 30.2 in ENE 1 mph 15 mph 92 % 0 in
01:37 32.4 °F 30.4 °F 30.2 in North 2 mph 12 mph 92 % 0 in
01:42 32.2 °F 30.2 °F 30.2 in North 7 mph 11 mph 92 % 0 in
01:47 32.2 °F 30.2 °F 30.2 in North 5 mph 11 mph 92 % 0 in
01:57 32.4 °F 30.6 °F 30.2 in NNE 5 mph 11 mph 93 % 0 in
02:02 32.4 °F 30.6 °F 30.2 in North 2 mph 11 mph 93 % 0 in
02:12 32.5 °F 30.7 °F 30.2 in NNE 5 mph 10 mph 93 % 0 in
02:22 32.5 °F 30.7 °F 30.2 in North 1 mph 10 mph 93 % 0 in
02:27 32.5 °F 30.7 °F 30.2 in NNW 5 mph 10 mph 93 % 0 in
02:32 32.5 °F 30.7 °F 30.2 in NNE 5 mph 10 mph 93 % 0 in
02:37 32.5 °F 30.7 °F 30.2 in NNE 5 mph 10 mph 93 % 0 in
02:42 32.5 °F 30.7 °F 30.2 in North 6 mph 9 mph 93 % 0 in
02:47 32.5 °F 30.7 °F 30.2 in NW 1 mph 9 mph 93 % 0 in
02:52 32.5 °F 30.7 °F 30.2 in NNE 3 mph 9 mph 93 % 0 in
02:57 32.5 °F 30.7 °F 30.2 in NW 3 mph 8 mph 93 % 0 in
03:02 32.5 °F 30.7 °F 30.2 in NNW 4 mph 9 mph 93 % 0 in
03:17 32.7 °F 30.9 °F 30.2 in NNE 2 mph 11 mph 93 % 0 in
03:27 32.7 °F 30.9 °F 30.2 in ENE 9 mph 11 mph 93 % 0 in
03:32 32.7 °F 30.9 °F 30.2 in North 6 mph 12 mph 93 % 0 in
03:37 32.7 °F 30.9 °F 30.2 in NNW 4 mph 12 mph 93 % 0 in
03:42 32.7 °F 30.9 °F 30.2 in NNE 8 mph 12 mph 93 % 0 in
03:52 32.7 °F 30.9 °F 30.2 in NNW 7 mph 13 mph 93 % 0 in
03:57 32.7 °F 30.9 °F 30.2 in NNW 8 mph 13 mph 93 % 0 in
04:02 32.7 °F 30.9 °F 30.2 in NE 5 mph 13 mph 93 % 0 in
04:07 32.7 °F 30.9 °F 30.2 in NNE 9 mph 14 mph 93 % 0 in
04:22 32.9 °F 30.9 °F 30.2 in NNE 6 mph 16 mph 92 % 0 in
04:32 32.9 °F 30.9 °F 30.2 in NNE 4 mph 13 mph 92 % 0 in
04:42 32.9 °F 30.9 °F 30.2 in NNE 6 mph 13 mph 92 % 0 in
04:47 32.7 °F 30.9 °F 30.2 in NW 3 mph 9 mph 93 % 0 in
04:52 32.7 °F 30.9 °F 30.2 in NNW 7 mph 10 mph 93 % 0 in
04:57 32.7 °F 30.7 °F 30.2 in NW 4 mph 12 mph 92 % 0 in
05:02 32.7 °F 30.7 °F 30.2 in North 6 mph 12 mph 92 % 0 in
05:12 32.7 °F 30.7 °F 30.2 in North 6 mph 11 mph 92 % 0 in
05:17 32.7 °F 30.7 °F 30.2 in Calm   10 mph 92 % 0 in
05:22 32.7 °F 30.7 °F 30.2 in North 1 mph 8 mph 92 % 0 in
05:32 32.7 °F 30.7 °F 30.2 in NE 3 mph 7 mph 92 % 0 in
05:52 32.7 °F 30.2 °F 30.2 in NNE 7 mph 13 mph 90 % 0 in
06:02 32.7 °F 30.2 °F 30.2 in North 5 mph 12 mph 90 % 0 in
06:07 32.7 °F 30.2 °F 30.2 in NNE 2 mph 9 mph 90 % 0 in
06:12 32.7 °F 30.2 °F 30.2 in Calm   9 mph 90 % 0 in
06:17 32.7 °F 30.4 °F 30.2 in Calm   9 mph 91 % 0 in
06:27 32.7 °F 30.4 °F 30.2 in North 4 mph 7 mph 91 % 0 in
06:32 32.7 °F 30.7 °F 30.2 in ENE 2 mph 8 mph 92 % 0 in
06:42 32.7 °F 30.7 °F 30.2 in NNE 2 mph 10 mph 92 % 0 in
06:47 32.5 °F 30.6 °F 30.2 in North 2 mph 10 mph 92 % 0 in
06:52 32.5 °F 30.6 °F 30.2 in NNW 1 mph 10 mph 92 % 0 in
07:02 32.5 °F 30.6 °F 30.2 in NE 2 mph 10 mph 92 % 0 in
07:17 32.5 °F 30.6 °F 30.2 in NNW 2 mph 11 mph 92 % 0 in
07:22 32.5 °F 30.6 °F 30.2 in North 8 mph 11 mph 92 % 0 in
07:37 32.5 °F 30.2 °F 30.2 in NNW 4 mph 11 mph 91 % 0 in
07:42 32.4 °F 30 °F 30.2 in NW 3 mph 11 mph 91 % 0 in
07:47 32.4 °F 30 °F 30.2 in NNE 5 mph 12 mph 91 % 0 in
07:57 32.4 °F 30 °F 30.2 in NE 2 mph 11 mph 91 % 0 in
08:02 32.4 °F 30 °F 30.2 in NW 1 mph 11 mph 91 % 0 in
08:12 32.5 °F 30.2 °F 30.2 in NNW 6 mph 11 mph 91 % 0 in
08:22 32.5 °F 30.2 °F 30.2 in NNE 2 mph 11 mph 91 % 0 in
08:27 32.5 °F 30 °F 30.2 in NNE 7 mph 12 mph 90 % 0 in
08:32 32.4 °F 29.8 °F 30.2 in NW 4 mph 12 mph 90 % 0 in
08:37 32.4 °F 29.8 °F 30.2 in ENE 1 mph 12 mph 90 % 0 in
08:42 32.2 °F 29.7 °F 30.2 in NNW 6 mph 11 mph 90 % 0 in
08:47 32.2 °F 29.8 °F 30.2 in WNW 2 mph 11 mph 91 % 0 in
08:57 32.2 °F 29.8 °F 30.2 in NNE 6 mph 9 mph 91 % 0 in
09:02 32.4 °F 29.8 °F 30.2 in NNE 4 mph 12 mph 90 % 0 in
09:17 32.5 °F 29.7 °F 30.2 in NNE 9 mph 13 mph 89 % 0 in
09:22 32.5 °F 29.7 °F 30.2 in NNE 8 mph 16 mph 89 % 0 in
09:32 32.7 °F 29.8 °F 30.2 in NNE 8 mph 16 mph 89 % 0 in
09:42 32.9 °F 29.7 °F 30.2 in NNE 7 mph 16 mph 88 % 0 in
09:47 33.1 °F 29.8 °F 30.2 in NW 6 mph 16 mph 88 % 0 in
09:52 33.1 °F 29.8 °F 30.2 in WNW 3 mph 19 mph 88 % 0 in
09:57 32.9 °F 29.7 °F 30.2 in NNW 10 mph 19 mph 88 % 0 in
10:02 32.9 °F 29.7 °F 30.2 in NW 10 mph 19 mph 88 % 0 in
10:07 33.1 °F 29.8 °F 30.2 in NW 7 mph 18 mph 88 % 0 in
10:12 33.1 °F 30.2 °F 30.3 in NE 5 mph 18 mph 89 % 0 in
10:22 32.9 °F 29.7 °F 30.3 in NNW 11 mph 19 mph 88 % 0 in
10:37 32.7 °F 29.5 °F 30.3 in North 8 mph 20 mph 88 % 0 in
10:42 32.7 °F 29.5 °F 30.3 in NNE 4 mph 16 mph 88 % 0 in
10:57 32.7 °F 29.5 °F 30.3 in North 6 mph 17 mph 88 % 0 in
11:02 32.7 °F 29.5 °F 30.3 in North 6 mph 19 mph 88 % 0 in
11:07 32.9 °F 29.7 °F 30.3 in NNE 9 mph 19 mph 88 % 0 in
11:12 33.1 °F 29.8 °F 30.3 in NE 10 mph 16 mph 88 % 0 in
11:22 33.1 °F 29.7 °F 30.3 in NNE 12 mph 19 mph 87 % 0 in
11:27 32.9 °F 29.5 °F 30.3 in NE 22 mph 22 mph 87 % 0 in
11:42 33.3 °F 29.5 °F 30.3 in NE 12 mph 22 mph 86 % 0 in
11:52 33.6 °F 30.2 °F 30.3 in NE 7 mph 20 mph 87 % 0 in
12:17 34 °F 30.6 °F 30.3 in North 6 mph 14 mph 87 % 0 in
12:22 33.8 °F 29.8 °F 30.3 in North 11 mph 14 mph 85 % 0 in
12:27 34 °F 30.2 °F 30.3 in NNW 7 mph 17 mph 86 % 0.01 in
12:32 34.2 °F 30.4 °F 30.3 in NE 12 mph 17 mph 86 % 0.01 in
12:42 34.7 °F 30.7 °F 30.2 in NNW 7 mph 18 mph 85 % 0.01 in
12:47 34.3 °F 30 °F 30.2 in North 16 mph 19 mph 84 % 0.01 in
12:52 34.3 °F 30 °F 30.2 in North 9 mph 19 mph 84 % 0.01 in
13:02 34.7 °F 30.7 °F 30.2 in NNW 4 mph 19 mph 85 % 0.01 in
13:07 34.9 °F 30.6 °F 30.2 in NE 13 mph 19 mph 84 % 0.01 in
13:12 34.9 °F 30.6 °F 30.2 in NNE 10 mph 19 mph 84 % 0.01 in
13:22 35.2 °F 30.9 °F 30.2 in NNE 7 mph 20 mph 84 % 0 in
13:37 35.2 °F 30.6 °F 30.2 in NNE 8 mph 23 mph 83 % 0 in
13:52 35.2 °F 30.9 °F 30.3 in NNW 5 mph 19 mph 84 % 0 in
14:17 35.4 °F 30.7 °F 30.2 in North 11 mph 19 mph 83 % 0 in
14:22 35.2 °F 30.6 °F 30.2 in North 11 mph 19 mph 83 % 0 in
14:27 35.2 °F 30.6 °F 30.2 in NNW 8 mph 19 mph 83 % 0 in
14:37 35.2 °F 30.6 °F 30.3 in NW 5 mph 22 mph 83 % 0 in
14:52 35.6 °F 30.9 °F 30.3 in NNW 9 mph 19 mph 83 % 0 in
14:57 35.4 °F 30.7 °F 30.3 in NNW 10 mph 18 mph 83 % 0 in
15:02 35.2 °F 30.6 °F 30.3 in NNW 7 mph 20 mph 83 % 0 in
15:12 34.9 °F 30.2 °F 30.3 in North 15 mph 22 mph 83 % 0 in
15:17 35.1 °F 30.4 °F 30.3 in NNE 5 mph 22 mph 83 % 0 in
15:22 35.1 °F 30.7 °F 30.3 in NNW 12 mph 22 mph 84 % 0 in
15:27 34.9 °F 30.6 °F 30.3 in North 16 mph 20 mph 84 % 0 in
15:32 34.5 °F 30.2 °F 30.3 in NNW 10 mph 20 mph 84 % 0 in
15:37 34.5 °F 30.6 °F 30.3 in North 9 mph 20 mph 85 % 0 in
15:42 34.5 °F 30.6 °F 30.3 in NNW 11 mph 19 mph 85 % 0 in
15:57 34.3 °F 30 °F 30.3 in North 8 mph 18 mph 84 % 0 in
16:12 34.2 °F 29.8 °F 30.3 in NW 9 mph 18 mph 84 % 0 in
16:17 34.2 °F 29.8 °F 30.3 in NNE 9 mph 18 mph 84 % 0 in
16:32 33.8 °F 29.8 °F 30.3 in North 12 mph 17 mph 85 % 0 in
16:37 33.6 °F 29.7 °F 30.3 in NNE 5 mph 17 mph 85 % 0 in
16:42 33.4 °F 29.5 °F 30.3 in NW 5 mph 19 mph 85 % 0 in
16:47 33.3 °F 29.5 °F 30.3 in NNE 2 mph 19 mph 86 % 0 in
16:52 32.9 °F 29.1 °F 30.3 in North 8 mph 15 mph 86 % 0 in
17:02 32.5 °F 29.1 °F 30.3 in North 7 mph 13 mph 87 % 0 in
17:12 32.4 °F 29.1 °F 30.3 in NNW 3 mph 11 mph 88 % 0 in
17:17 32.2 °F 28.9 °F 30.3 in North 5 mph 11 mph 88 % 0 in
17:22 32.2 °F 28.9 °F 30.3 in North 7 mph 8 mph 88 % 0 in
17:27 32.2 °F 28.9 °F 30.3 in NNW 9 mph 10 mph 88 % 0 in
17:47 32 °F 29.1 °F 30.3 in NNW 2 mph 11 mph 89 % 0 in
17:52 31.8 °F 28.9 °F 30.3 in NNW 4 mph 11 mph 89 % 0 in
17:57 31.8 °F 28.9 °F 30.3 in North 5 mph 11 mph 89 % 0 in
18:02 31.8 °F 29.3 °F 30.3 in NW 4 mph 12 mph 90 % 0 in
18:12 31.8 °F 28.9 °F 30.3 in NNE 4 mph 11 mph 89 % 0 in
18:17 31.6 °F 28.8 °F 30.3 in NNW 2 mph 10 mph 89 % 0 in
18:22 31.6 °F 29.1 °F 30.3 in NNW 3 mph 9 mph 90 % 0 in
18:42 31.3 °F 28.8 °F 30.3 in NW 6 mph 10 mph 90 % 0 in
18:52 31.3 °F 28.8 °F 30.3 in North 7 mph 11 mph 90 % 0 in
18:57 31.3 °F 28.8 °F 30.3 in North 6 mph 11 mph 90 % 0 in
19:02 31.1 °F 28.8 °F 30.3 in NNW 4 mph 12 mph 91 % 0 in
19:07 30.9 °F 28.6 °F 30.3 in North 5 mph 12 mph 91 % 0 in
19:12 30.9 °F 28.6 °F 30.3 in NNW 5 mph 13 mph 91 % 0 in
19:17 30.9 °F 28.6 °F 30.3 in North 5 mph 13 mph 91 % 0 in
19:22 30.9 °F 28.6 °F 30.3 in NNW 7 mph 12 mph 91 % 0 in
19:32 30.9 °F 28.6 °F 30.3 in NW 5 mph 14 mph 91 % 0 in
19:37 30.7 °F 28.4 °F 30.3 in North 7 mph 14 mph 91 % 0 in
19:42 30.7 °F 28.4 °F 30.3 in NE 10 mph 14 mph 91 % 0 in
19:52 30.7 °F 28.4 °F 30.3 in NNW 6 mph 16 mph 91 % 0 in
19:57 30.7 °F 28.4 °F 30.3 in NNW 5 mph 16 mph 91 % 0 in
20:02 30.7 °F 28.4 °F 30.3 in NNW 5 mph 16 mph 91 % 0 in
20:12 30.7 °F 28.4 °F 30.3 in NNE 5 mph 13 mph 91 % 0 in
20:17 30.7 °F 28.4 °F 30.3 in NNE 4 mph 16 mph 91 % 0 in
20:22 30.7 °F 28.4 °F 30.3 in NNE 4 mph 16 mph 91 % 0 in
20:27 30.7 °F 28.8 °F 30.3 in NNE 7 mph 16 mph 92 % 0 in
20:37 30.7 °F 28.8 °F 30.3 in NE 5 mph 12 mph 92 % 0 in
20:42 30.7 °F 28.8 °F 30.3 in NE 12 mph 13 mph 92 % 0 in
20:47 30.7 °F 28.8 °F 30.3 in North 10 mph 16 mph 92 % 0 in
20:52 30.7 °F 28.8 °F 30.3 in NNE 7 mph 17 mph 92 % 0 in
21:02 30.9 °F 28.9 °F 30.3 in NNE 7 mph 17 mph 92 % 0 in
21:07 30.9 °F 28.9 °F 30.3 in NNE 3 mph 17 mph 92 % 0 in
21:12 30.9 °F 28.9 °F 30.3 in West 5 mph 15 mph 92 % 0 in
21:17 30.9 °F 28.9 °F 30.4 in North 5 mph 15 mph 92 % 0 in
21:27 30.9 °F 28.9 °F 30.4 in North 6 mph 15 mph 92 % 0 in
21:42 30.9 °F 28.9 °F 30.3 in NNE 7 mph 14 mph 92 % 0 in
21:57 30.9 °F 28.9 °F 30.4 in North 3 mph 13 mph 92 % 0 in
22:02 30.9 °F 28.9 °F 30.4 in NE 2 mph 12 mph 92 % 0 in
22:12 30.9 °F 28.9 °F 30.4 in NNW 4 mph 11 mph 92 % 0 in
22:17 30.9 °F 28.6 °F 30.4 in North 2 mph 11 mph 91 % 0 in
22:22 30.9 °F 28.9 °F 30.4 in NE 2 mph 11 mph 92 % 0 in
22:27 30.9 °F 28.9 °F 30.4 in NNW 4 mph 10 mph 92 % 0 in
22:37 30.9 °F 28.9 °F 30.4 in NNW 4 mph 15 mph 92 % 0 in
22:42 30.9 °F 28.9 °F 30.4 in NNW 5 mph 15 mph 92 % 0 in
22:47 30.9 °F 28.9 °F 30.4 in NNW 4 mph 10 mph 92 % 0 in
22:52 30.7 °F 28.8 °F 30.4 in NE 2 mph 11 mph 92 % 0 in
23:12 30.7 °F 28.8 °F 30.4 in North 5 mph 12 mph 92 % 0 in
23:17 30.7 °F 28.8 °F 30.4 in NNW 3 mph 12 mph 92 % 0 in
23:22 30.7 °F 28.8 °F 30.4 in NNW 5 mph 10 mph 92 % 0 in
23:27 30.6 °F 28.6 °F 30.4 in NNW 4 mph 8 mph 92 % 0 in
23:37 30.6 °F 28.6 °F 30.4 in NNW 3 mph 11 mph 92 % 0 in
23:42 30.6 °F 28.6 °F 30.4 in NNE 6 mph 11 mph 92 % 0 in
23:47 30.4 °F 28.4 °F 30.4 in NNW 6 mph 11 mph 92 % 0 in
23:57 30.4 °F 28.4 °F 30.4 in NNW 5 mph 11 mph 92 % 0 in
Meteo18
Compliments of Weather Underground - 4 mb

Script developed by  Jim McMurry - jmcmurry@mwt.net Adapted for the template by  Wim van der Kuil - Leuven-Template.eu

You find our weather info also at:

European Weather Network

Weather Underground

Equipment we use:

Weather-station
Davis Vue

Weather-program
Meteohub

Weather-server
Raspberry PI 2 B+

Provider
1 and 1

Davis Vue

Meteohub

Raspberry PI 2 B+

1 and 1